LFBHLFBI

Guest
Details From LFBH - La Rochelle Laleu
To LFBI - Poitiers Biard
Flight Number -
Tags Generated
Created
Modified
Stats Distance 67 nm / 124 km
Max Altitude 0 ft / 0 m
Waypoints 2
Social Downloads 3
Likes 0
Share VATSIM

Download

Looking for another format? Having issues loading an existing format? Contact us
Advertisement - Login to hide

Notes

Generated

Route

LFBH LFBI

ID Type Via Altitude Latitude Longitude Leg Dist Tot Dist Heading (true) Name
O LFBH APT - 0 ft / 0 m 46.17968˚ -1.21101˚ - 0 nm - -
O LFBI APT - 0 ft / 0 m 46.57962˚ 0.30012˚ 67 nm 67 nm 68° / 70° -

Altitude Profile

Advertisement - Login to hide

LFBH

Details ICAO LFBH (LRH)
Name La Rochelle Laleu
Region France
Timezone Europe/Paris (UTC+1.0)
Stats Elevation 74 ft / 23 m (AMSL)
Location 46.179245° -1.196410°
Runways 1
Magnetic Variation 0.302° W

METAR

LFBH 132200Z AUTO 27021KT 9999 FEW028 BKN058 OVC180 12/08 Q1010 TEMPO 25025G40KT 4500 -SHRA BKN020TCU

Decode

TAF

TAF AMD TAF AMD LFBH 131802Z 1318/1418 20015G25KT 9999 BKN030 OVC060 TEMPO 1318/1320 BKN010 PROB40 TEMPO 1318/1418 25025G40KT TEMPO 1318/1323 4500 -SHRA BKN020TCU TEMPO 1400/1406 3500 -RA BKN008 OVC013 PROB30 TEMPO 1415/1418 2500 RA BKN010 OVC015

Decode

Departure Runways

ID Width Length Bearing (true) Bearing (mag) Surface Threshold Offset Overrun Length
10 148 ft / 45 m 7,383 ft / 2,250 m 92.43° 92.73° Asphalt 1,033 ft / 315 m 0 ft / 0 m
28 148 ft / 45 m 7,383 ft / 2,250 m 272.45° 272.75° Asphalt 1,532 ft / 467 m 0 ft / 0 m

LFBI

Details ICAO LFBI (PIS)
Name Poitiers Biard
Region France
Timezone Europe/Paris (UTC+1.0)
Stats Elevation 423 ft / 129 m (AMSL)
Location 46.588739° 0.307939°
Runways 1
Magnetic Variation 0.123° E

METAR

LFBI 132200Z AUTO 25012KT 9999 SCT026 BKN044 BKN050 10/08 Q1008 TEMPO 4500 SHRA BKN012 OVC020TCU BECMG 18015G25KT

Decode

TAF

TAF LFBI 131700Z 1318/1418 18015G25KT 9999 OVC030 TEMPO 1318/1319 2500 RA BKN005 OVC015 TEMPO 1319/1323 4500 SHRA BKN012 OVC020TCU PROB30 TEMPO 1318/1323 27020G40KT TEMPO 1401/1409 2500 RA BKN010 OVC015 BECMG 1402/1404 24013KT BECMG 1408/1410 24015G25KT TEMPO 1410/1418 24020G40KT TEMPO 1410/1418 4500 SHRA BKN015TCU

Decode

Destination Runways

ID Width Length Bearing (true) Bearing (mag) Surface Threshold Offset Overrun Length
03 148 ft / 45 m 7,725 ft / 2,355 m 30.51° 30.39° Asphalt 0 ft / 0 m 164 ft / 50 m
21 148 ft / 45 m 7,725 ft / 2,355 m 210.53° 210.41° Asphalt 0 ft / 0 m 0 ft / 0 m

Approach Navaids

Runway Type Ident Frequency Range Bearing (true) Bearing (mag) Slope Elevation
21 Localiser PT 110.95 MHz 18 nm / 33 km 210.51° 210.39° - 412 ft / 126 m (AMSL)
21 Glidescope PT 110.95 MHz 10 nm / 19 km 210.52° 210.40° 3.00° 412 ft / 126 m (AMSL)
21 DME PT 110.95 MHz 18 nm / 33 km - - - 455 ft / 139 m (AMSL)

Popular Alternatives